Location: Marysville Observatory
(48.1092°N, 122.1645°W)
Time: 23:08:03
(UTC-08:00)

ISS - Visible Passes

Search period start: 31 January 2015 00:00
Search period end: 10 February 2015 00:00
Orbit: 400 x 408 km, 51.6° (Epoch: 01 February)

Date Brightness Start Highest point End Pass type
(mag) Time Alt. Az. Time Alt. Az. Time Alt. Az.
04 Feb -0.8 18:39:00 10° SSE 18:39:11 10° SE 18:39:11 10° SE visible
05 Feb -1.5 19:20:21 10° SSW 19:21:59 23° SSW 19:21:59 23° SSW visible
06 Feb -1.8 18:28:31 10° SSW 18:31:03 21° SE 18:32:00 19° ESE visible
06 Feb -0.3 20:03:58 10° WSW 20:04:39 15° WSW 20:04:39 15° WSW visible
07 Feb -3.2 19:11:31 10° SW 19:14:33 64° S 19:14:33 64° S visible
08 Feb -2.7 18:19:14 10° SW 18:22:19 41° SSE 18:24:22 18° E visible
08 Feb -0.9 19:55:31 10° W 19:57:01 24° W 19:57:01 24° W visible
09 Feb -3.3 19:02:53 10° WSW 19:06:09 73° NNW 19:06:43 55° NE visible
